This is the latest recevied weather packets stored in our database for station/object KD4EED. If no packets are shown the sender has not sent any weather packets the latest 10 day(s).
| Time | Temp. | Humidity | Pressure | Rain* | Wind** | Luminosity | Snow |
|---|---|---|---|---|---|---|---|
| 1778021593 | 17.22° C | 62% | 1012 hPa | - | - | 78 W/m² | - |
| 1778021288 | 17.78° C | 62% | 1012 hPa | - | - | 61 W/m² | - |
| 1778020986 | 17.78° C | 61% | 1012.1 hPa | - | - | 54 W/m² | - |
| 1778020683 | 18.33° C | 60% | 1012 hPa | - | - | 69 W/m² | - |
| 1778020379 | 18.33° C | 58% | 1012.1 hPa | - | - | 103 W/m² | - |
| 1778020075 | 18.89° C | 57% | 1012 hPa | - | - | 168 W/m² | - |
| 1778019772 | 19.44° C | 58% | 1012.2 hPa | - | - | 392 W/m² | - |
| 1778019469 | 19.44° C | 56% | 1012 hPa | - | - | 383 W/m² | - |
| 1778019165 | 20° C | 56% | 1012.2 hPa | - | - | 435 W/m² | - |
| 1778018862 | 19.44° C | 56% | 1012 hPa | - | - | 509 W/m² | - |
| 1778018559 | 20° C | 56% | 1012.3 hPa | - | - | 328 W/m² | - |
| 1778018258 | 20° C | 56% | 1012.3 hPa | - | - | 538 W/m² | - |
| 1778017955 | 20° C | 56% | 1012.4 hPa | - | - | 716 W/m² | - |
| 1778017653 | 20° C | 54% | 1012.3 hPa | - | - | 317 W/m² | - |
| 1778017350 | 20° C | 54% | 1012.3 hPa | - | - | 587 W/m² | - |
| 1778017047 | 20° C | 52% | 1012.3 hPa | - | - | 408 W/m² | - |
| 1778016744 | 20° C | 52% | 1012.4 hPa | - | - | 328 W/m² | - |
| 1778016440 | 20.56° C | 48% | 1012.4 hPa | - | - | 400 W/m² | - |
| 1778016138 | 21.11° C | 49% | 1012.2 hPa | - | - | 924 W/m² | - |
| 1778015834 | 20.56° C | 50% | 1012.4 hPa | - | - | 802 W/m² | - |
| 1778015532 | 20° C | 49% | 1012.4 hPa | - | - | 831 W/m² | - |
| 1778015228 | 20° C | 48% | 1012.6 hPa | - | - | 251 W/m² | - |
| 1778014925 | 20.56° C | 46% | 1012.4 hPa | - | - | 290 W/m² | - |
| 1778014623 | 21.11° C | 45% | 1012.4 hPa | - | - | 311 W/m² | - |
| 1778014321 | 20.56° C | 46% | 1012.4 hPa | - | - | 949 W/m² | - |
* Rain since midnight (hover to see other rain measurements)
** Current wind speed in m/s (hover to see current wind gust speed)